RH
32 38 31 37 36 39 50 76 71 55 58 46 43 41 46 38 32 20 18 11 8 8 15 21 25 22 18 16 15 16 18 18 20 24 23 21 20 21 22 22 22 22 24 27
33 40 33 39 35 35 36 64 68 69 54 57 52 41 43 48 39 32 23 19 16 10 10 17 18 21 20 20 20 18 16 18 19 20 20 21 21 21 24 22 21 22 21 23
34 46 32 38 37 34 31 34 64 70 57 47 57 56 42 42 47 42 34 27 18 20 19 17 22 20 19 19 19 20 22 20 20 23 25 22 22 24 25 23 22 24 23 25
46 49 37 33 43 34 33 27 36 59 70 56 46 57 55 49 40 42 45 37 30 21 15 16 15 14 13 14 13 14 17 19 21 23 22 22 22 22 23 24 23 22 23 25
64 48 46 37 41 36 35 29 27 35 54 69 52 48 57 63 58 50 40 43 42 34 28 19 16 13 11 11 11 12 14 17 20 20 21 23 22 22 23 24 24 26 26 28
80 51 55 45 39 36 34 31 27 27 29 40 56 54 40 57 59 61 55 47 39 43 40 31 28 26 25 18 14 13 14 14 15 20 22 25 26 27 26 25 24 23 26 29
76 79 50 61 42 40 35 28 28 27 28 28 34 46 42 38 51 60 59 61 56 40 42 42 41 36 32 27 24 21 19 17 17 18 22 24 25 27 28 27 27 30 33 30
76 92 62 52 57 43 40 33 29 28 27 29 28 31 37 38 35 41 40 42 53 59 46 43 42 42 42 40 37 32 28 25 22 22 22 24 27 28 31 34 35 37 39 41
94 85 84 48 63 50 45 40 31 30 28 26 28 25 30 35 32 36 35 35 37 38 44 57 43 38 37 40 40 40 39 36 34 30 28 28 28 30 31 33 35 36 37 37
96 86 99 75 56 70 53 46 38 35 32 28 26 29 28 32 31 36 46 42 36 39 38 35 39 49 46 40 36 36 35 35 37 38 38 39 39 39 41 41 43 42 40 40
95 97 96 100 85 69 69 57 48 38 38 29 27 26 26 28 35 41 46 52 48 44 39 32 29 33 36 40 41 43 36 35 36 35 36 34 37 39 41 40 42 38 37 36
90 87 94 100 100 87 76 66 56 49 44 39 30 29 28 27 27 38 36 35 49 38 28 33 34 32 30 36 40 49 46 34 36 44 46 47 44 39 34 36 34 36 44 41
100 87 94 95 100 100 98 76 70 62 56 50 47 30 32 32 33 39 38 31 27 28 28 30 30 30 35 30 32 32 36 38 38 34 31 30 34 38 43 44 49 57 66 68
97 93 79 87 100 100 100 99 83 78 73 65 57 53 39 36 37 38 38 33 34 34 31 29 30 28 29 32 38 41 39 33 35 39 38 38 44 37 29 29 34 48 59 70
88 97 87 81 91 100 100 100 100 97 86 81 74 69 70 60 45 44 54 51 42 54 55 52 53 57 53 38 30 41 34 31 27 27 35 35 35 30 26 27 29 28 33 47
100 99 100 79 87 94 100 100 100 100 100 100 100 87 90 90 86 84 90 72 77 96 96 67 67 70 64 55 36 55 45 35 38 34 27 28 31 34 34 33 32 36 37 40
99 98 100 94 86 85 100 100 100 100 100 100 100 100 100 100 96 96 100 100 100 100 100 100 97 93 100 94 62 46 40 43 42 40 41 38 39 43 45 61 68 58 49 57
100 90 93 100 82 76 96 100 100 100 100 100 100 100 100 100 100 100 100 100 99 100 100 96 98 100 100 100 86 80 60 48 38 34 34 35 37 38 38 43 48 53 64 73
100 100 80 73 71 81 98 95 100 100 100 100 100 100 100 100 100 100 100 100 98 99 99 80 62 80 96 94 96 76 67 56 54 54 52 55 56 49 44 50 65 75 89 100
100 100 100 79 81 84 96 100 100 100 100 100 100 100 100 100 100 100 100 100 100 100 100 100 100 100 100 97 81 69 70 70 70 64 59 53 52 56 66 74 88 100 100 100
100 100 100 79 72 80 78 83 94 89 86 93 94 92 97 100 100 100 100 99 97 100 100 97 85 99 88 87 75 70 68 57 57 58 66 75 80 86 98 100 100 100 100 100
90 91 97 98 85 78 74 62 78 84 89 96 97 97 92 99 92 94 100 100 100 96 100 100 100 100 100 98 96 95 86 82 87 90 94 98 100 100 100 100 100 100 99 95
100 78 94 79 67 85 54 67 72 74 80 79 89 89 96 78 78 95 84 82 86 89 97 100 100 100 100 100 100 100 100 100 100 100 100 100 100 100 100 100 100 100 94 92
97 98 72 81 60 48 56 67 70 83 99 98 75 72 81 100 96 74 76 77 81 84 95 100 84 100 100 99 100 99 99 99 100 100 100 100 100 99 100 99 97 89 90 92
100 98 65 43 50 68 55 68 69 67 86 100 100 85 75 75 80 85 71 70 76 79 82 77 84 91 91 91 94 99 99 100 99 98 100 100 100 98 88 90 89 86 83 84
99 100 95 97 86 59 67 81 62 80 78 94 100 97 88 64 69 72 68 66 83 88 68 72 78 72 71 75 77 73 77 81 90 93 91 84 75 80 84 70 60 54 51 51
48 55 58 55 56 94 100 72 55 69 58 69 83 84 68 51 48 66 70 93 100 85 72 63 57 60 63 68 69 72 74 65 63 73 73 68 63 52 48 43 36 27 27 28
Wind_Speed
18 12 10 14 16 20 21 24 29 37 44 49 57 51 56 57 58 49 41 32 22 13 10 9 12 15 22 32 40 47 53 63 72 79 83 85 84 82 79 76 75 73 69 66
18 14 8 9 13 18 20 20 24 30 37 43 49 55 50 54 56 55 49 40 31 24 14 14 13 12 15 22 30 38 46 55 64 74 80 82 79 78 75 74 73 70 68 66
20 17 12 8 10 15 18 18 18 24 30 35 40 47 54 49 51 54 52 50 38 29 24 18 16 15 15 18 23 29 37 47 59 68 72 74 75 75 74 71 70 68 66 64
21 19 15 12 10 11 15 16 16 17 22 28 33 39 44 50 52 48 51 53 50 42 31 21 17 16 14 16 19 23 29 38 47 59 66 68 70 70 68 66 66 64 63 61
23 21 19 15 10 10 10 13 14 14 16 21 25 30 36 41 47 53 49 47 51 50 45 38 34 27 22 18 17 18 24 31 39 48 57 61 62 62 62 61 61 61 60 60
28 23 23 19 14 10 8 9 10 12 14 16 19 24 28 33 38 44 48 51 48 46 50 48 43 39 36 31 24 21 21 24 28 37 46 52 55 57 57 58 57 53 54 58
29 27 27 25 19 14 9 6 7 9 10 13 14 18 21 24 29 33 37 41 45 48 47 45 48 48 44 41 40 35 28 23 23 28 33 39 43 46 47 47 45 50 54 48
34 30 26 28 25 21 15 9 5 7 8 8 10 13 16 18 21 26 29 32 35 39 41 44 46 45 45 46 44 41 38 35 33 30 27 26 27 29 32 34 36 39 41 42
38 34 27 29 30 26 21 15 10 5 6 7 5 5 11 15 17 21 24 27 29 31 33 35 38 41 42 42 41 40 39 38 35 31 28 27 26 25 24 24 25 26 26 26
43 39 32 28 33 31 27 22 17 12 6 6 5 2 2 7 10 13 17 18 21 24 25 28 28 30 33 34 35 37 35 33 32 29 26 25 23 21 19 18 16 15 13 12
50 44 38 32 29 36 32 28 24 20 13 9 7 5 2 1 3 7 9 11 15 16 19 21 20 22 24 27 28 28 28 28 27 26 23 21 19 17 14 11 10 9 11 13
54 50 47 38 34 31 38 34 30 26 23 15 12 10 7 4 2 1 4 6 6 11 13 16 16 15 12 13 16 17 20 20 18 17 17 15 13 10 9 9 5 4 5 7
53 56 52 47 39 36 35 40 36 33 29 26 20 18 14 11 8 5 5 4 3 3 5 6 7 8 9 9 10 12 11 10 10 10 10 8 4 4 5 5 7 11 15 19
57 55 57 55 47 40 38 38 44 39 37 33 31 26 22 20 17 13 11 10 8 7 8 7 6 7 4 1 1 3 4 4 4 5 6 8 11 13 14 15 18 20 24 27
60 57 57 58 57 49 44 40 39 45 43 41 38 36 33 29 27 24 21 18 16 14 13 13 13 13 14 14 11 12 15 16 17 17 18 19 20 23 25 27 29 31 31 33
70 62 56 60 62 59 51 47 43 40 42 48 43 43 41 39 35 34 32 29 27 25 24 22 21 23 24 25 23 22 24 24 25 26 26 27 29 32 33 36 38 41 42 44
72 72 67 64 60 64 57 54 53 49 44 41 45 49 49 49 46 41 39 39 38 37 35 34 33 30 33 37 35 31 34 34 34 36 37 38 41 42 42 44 48 51 52 54
81 74 76 73 66 66 64 60 59 58 55 50 45 44 49 54 55 53 52 49 46 45 45 45 39 40 42 48 45 44 44 44 43 44 45 47 48 50 51 53 55 57 61 63
84 87 83 79 72 69 69 65 63 61 60 56 53 53 54 54 55 55 56 59 57 56 55 55 51 50 53 55 56 55 53 52 52 53 54 55 54 55 57 59 61 63 65 67
92 92 91 82 75 78 74 72 65 61 61 57 57 59 58 59 59 58 56 55 55 58 57 54 50 53 61 61 61 60 59 58 59 60 61 62 63 65 65 65 68 70 72 74
99 94 97 89 83 85 83 80 74 67 59 56 57 61 64 66 64 63 63 62 61 58 58 61 59 62 68 69 68 66 67 67 67 68 69 70 70 70 71 73 76 79 82 84
101 100 99 99 96 97 88 82 72 66 65 59 69 72 68 62 64 69 66 68 68 65 65 64 61 69 73 73 74 74 74 74 75 76 76 76 76 78 81 83 86 88 91 94
105 103 107 103 100 103 85 77 64 68 72 76 79 78 73 71 73 66 66 68 67 66 65 67 71 76 73 74 76 77 79 80 82 84 85 85 85 87 88 90 93 97 100 102
108 109 110 110 110 100 82 73 75 77 79 83 84 80 80 79 79 76 69 70 69 67 70 72 76 72 72 76 79 81 84 87 90 91 91 91 91 90 91 95 98 102 104 107
113 116 115 109 105 93 87 84 82 85 89 95 96 93 91 88 84 82 76 74 76 77 80 82 78 81 82 79 80 82 84 86 88 91 94 96 97 101 105 107 110 111 114 117
127 125 119 116 111 101 99 99 94 96 101 103 107 109 105 98 91 84 82 78 79 89 94 86 83 85 87 89 90 92 94 94 95 97 98 101 103 102 106 111 115 117 117 118
112 107 110 110 104 117 120 108 100 101 103 107 110 111 109 105 98 88 89 92 101 101 94 92 93 91 91 94 96 95 97 101 102 103 107 109 110 112 113 114 109 105 107 106
Wind_Direction
260 262 292 317 336 338 352 7 17 22 27 27 27 30 35 39 41 42 44 48 52 64 102 115 148 173 179 184 190 193 199 201 200 201 204 207 209 210 211 216 219 223 227 231
257 250 270 314 333 336 344 5 16 22 29 32 32 32 35 39 43 46 47 49 55 60 74 115 117 144 169 194 195 198 198 202 201 203 205 207 208 210 213 215 219 224 229 233
255 243 250 287 320 335 340 354 14 24 30 34 34 36 35 39 43 48 49 51 54 61 71 89 107 117 139 167 185 198 202 201 202 202 206 208 210 210 212 215 218 222 227 233
265 243 246 257 298 319 336 348 6 24 28 36 37 39 41 41 43 46 48 54 55 57 66 77 95 108 124 151 164 179 193 203 203 203 205 207 209 211 212 215 219 223 228 233
268 246 241 251 270 294 318 337 354 19 31 34 42 41 44 46 49 48 49 50 54 59 63 69 74 85 97 108 133 158 177 188 196 202 205 206 210 212 213 216 221 225 230 235
259 253 240 245 248 262 286 320 340 3 26 37 41 44 44 48 51 52 53 52 53 56 60 66 72 79 85 90 100 120 146 167 179 191 199 205 209 212 215 218 223 228 234 239
250 257 242 238 242 247 253 280 318 344 4 25 39 47 48 48 53 54 55 57 58 56 60 64 67 72 77 84 93 100 105 121 145 165 182 194 204 211 216 222 228 233 240 247
243 248 247 233 235 239 239 241 266 310 337 355 23 44 50 52 58 58 58 58 58 59 61 63 66 72 75 78 85 90 97 107 113 122 140 162 182 196 207 216 223 231 237 242
233 240 244 237 229 234 238 229 232 257 303 328 350 26 47 59 66 58 61 61 60 58 62 65 67 67 68 75 80 84 90 97 105 116 128 142 154 165 177 190 201 213 220 224
229 232 236 242 232 229 232 232 229 234 243 287 316 353 8 51 64 67 64 61 62 64 62 61 65 71 74 75 76 78 78 86 93 99 108 117 127 136 147 157 175 186 201 216
227 229 233 235 241 232 228 230 229 229 229 235 254 279 309 42 82 57 62 57 54 57 61 71 77 74 76 84 87 86 89 91 92 96 98 103 109 116 124 136 155 181 205 222
232 227 232 232 234 240 231 226 227 228 232 225 233 232 256 258 260 357 40 41 44 50 56 53 58 68 85 91 83 83 92 90 92 103 111 119 126 134 150 163 170 212 275 282
229 229 229 232 231 235 238 232 226 229 231 231 232 231 227 235 242 261 285 331 346 358 13 27 36 54 72 80 81 86 90 91 105 119 126 129 139 187 221 248 261 269 275 274
231 235 229 230 231 228 235 238 231 229 233 233 232 231 231 231 233 236 247 257 275 294 307 316 335 334 334 6 88 284 255 267 243 231 245 241 249 254 258 261 258 259 263 268
231 235 232 230 233 231 228 234 238 235 234 232 233 234 235 235 234 236 241 244 244 251 266 279 285 288 298 297 292 279 274 272 274 275 274 274 276 277 275 279 283 283 282 280
233 231 235 233 231 233 232 230 232 234 237 236 236 236 239 241 240 240 242 247 249 256 263 258 266 275 280 282 281 282 277 276 277 278 277 278 281 284 284 286 290 291 293 294
231 233 235 232 233 231 231 233 232 234 233 237 240 241 242 244 246 248 246 247 253 256 262 267 261 264 270 275 276 278 277 276 276 277 279 282 282 283 285 285 285 287 288 288
231 232 233 233 232 231 232 232 235 235 235 236 237 245 247 246 248 249 248 251 255 259 265 267 263 261 269 271 273 273 279 278 276 277 279 280 280 281 281 285 286 287 288 287
231 235 234 235 231 237 230 231 234 237 237 237 241 243 245 247 247 248 250 251 253 257 260 262 264 264 262 264 268 275 279 279 280 282 283 284 286 285 284 284 285 286 289 291
230 234 239 238 236 230 231 228 229 236 237 238 241 242 243 247 249 250 251 253 256 256 253 254 261 265 268 269 272 273 275 277 277 279 279 281 283 284 285 284 286 286 287 288
228 233 236 235 238 233 234 231 230 230 233 237 243 249 252 247 249 251 253 254 254 255 259 263 265 265 267 268 270 273 275 277 278 279 281 282 283 283 283 283 283 285 285 286
233 233 234 236 238 241 239 228 228 229 231 242 244 246 249 254 256 253 256 258 257 257 258 261 263 262 265 270 273 275 277 277 279 280 281 281 281 282 283 283 284 285 288 291
236 236 238 237 238 241 236 227 233 233 241 244 245 245 248 255 252 257 261 258 260 261 262 263 259 260 263 265 268 271 273 276 277 278 280 282 282 284 285 286 288 290 290 290
236 241 240 241 242 238 238 241 236 245 250 251 250 249 255 258 257 257 261 255 257 265 264 258 259 262 265 267 266 268 269 271 274 275 277 278 281 282 283 283 285 286 287 288
241 242 244 244 243 245 242 243 242 247 251 257 256 257 255 255 259 261 262 256 257 269 263 259 265 266 263 263 263 267 269 270 271 273 274 275 276 279 282 284 286 286 288 290
240 243 245 247 251 249 248 248 247 250 252 255 258 259 255 254 256 257 259 263 273 271 264 265 266 267 266 266 268 269 269 270 270 271 273 275 279 280 282 286 288 289 290 291
238 241 245 249 246 247 250 248 250 248 249 254 257 258 259 255 253 256 261 269 269 268 266 264 263 265 267 267 268 271 272 273 274 275 276 277 280 283 286 288 289 292 293 293